Location: Canyam�s
(41.5996°N, 2.4450°E)
Time: 22:02:04
(UTC+00:00)

Cosmos 1455 Rocket - Pass Details

Date: 06 June 2020
Orbit: 604 x 630 km, 82.5° (Epoch: 04 July)

Event Time Altitude Azimuth Distance (km) Brightness Sun altitude
Rises 21:58:43 0° 343° (NNW) 2,870 8.0 -20.7°
Reaches altitude 10° 22:01:04 10° 335° (NNW) 1,960 6.8 -20.9°
Maximum altitude 22:05:02 37° 269° (W) 955 4.2 -21.3°
Enters shadow 22:06:35 27° 226° (SW) 1,162 4.3 -21.4°
